When you browse on this site, cookies collect data to enhance your experience and personalize the content and advertising you see.
Visit our Privacy Policy to learn more. By continuing to use the site, you agree to this use of cookies and data.

Meteo pe oră la Arakaka

Astăzi, 5 August, Miercuri

Timp Temperatura Precipitaţii Vânt Presiune Umiditate
00:00 +22°C° 0 mm 0 m/s 755 mmHg 97%
01:00 +22°C° 0 mm 0 m/s 754 mmHg 97%
02:00 +22°C° 0 mm 0 m/s 754 mmHg 97%
03:00 +22°C° 0.1 mm 0 m/s 754 mmHg 98%
04:00 +22°C° 0.1 mm 0 m/s 753 mmHg 98%
05:00 +22°C° 0.1 mm 0 m/s 753 mmHg 98%
06:00 +23°C° 0 mm 0 m/s 754 mmHg 95%
07:00 +24°C° 0 mm 0 m/s 754 mmHg 92%
08:00 +25°C° 0 mm 0 m/s 755 mmHg 89%
09:00 +28°C° 0.1 mm 0 m/s 755 mmHg 77%
10:00 +30°C° 0.1 mm 0 m/s 755 mmHg 65%
11:00 +33°C° 0.1 mm 0 m/s 755 mmHg 53%
12:00 +31°C° 0.9 mm 0 m/s 754 mmHg 65%
13:00 +32°C° 0.9 mm 1 m/s 753 mmHg 76%
14:00 +30°C° 0.9 mm 1 m/s 752 mmHg 88%
15:00 +30°C° 1.4 mm 1 m/s 752 mmHg 90%
16:00 +29°C° 1.4 mm 1 m/s 751 mmHg 92%
17:00 +29°C° 1.4 mm 1 m/s 751 mmHg 93%
18:00 +28°C° 1.3 mm 1 m/s 752 mmHg 95%
19:00 +27°C° 1.3 mm 1 m/s 752 mmHg 96%
20:00 +25°C° 1.3 mm 1 m/s 753 mmHg 97%
21:00 +25°C° 0.3 mm 1 m/s 753 mmHg 98%
22:00 +25°C° 0.3 mm 1 m/s 753 mmHg 98%
23:00 +23°C° 0.3 mm 0 m/s 754 mmHg 98%

Mâine, 6 August, Joi

Timp Temperatura Precipitaţii Vânt Presiune Umiditate
00:00 +23°C° 0 mm 0 m/s 753 mmHg 98%
01:00 +23°C° 0 mm 0 m/s 753 mmHg 98%
02:00 +23°C° 0 mm 0 m/s 752 mmHg 99%
03:00 +22°C° 0 mm 0 m/s 752 mmHg 99%
04:00 +22°C° 0 mm 0 m/s 752 mmHg 99%
05:00 +22°C° 0 mm 0 m/s 752 mmHg 99%
06:00 +23°C° 0 mm 0 m/s 753 mmHg 96%
07:00 +24°C° 0 mm 0 m/s 754 mmHg 94%
08:00 +25°C° 0 mm 0 m/s 754 mmHg 91%
09:00 +29°C° 0.2 mm 1 m/s 754 mmHg 79%
10:00 +32°C° 0.2 mm 1 m/s 754 mmHg 68%
11:00 +34°C° 0.2 mm 1 m/s 754 mmHg 56%
12:00 +33°C° 0.6 mm 1 m/s 753 mmHg 61%
13:00 +33°C° 0.6 mm 1 m/s 752 mmHg 66%
14:00 +33°C° 0.6 mm 1 m/s 751 mmHg 71%
15:00 +31°C° 1.6 mm 1 m/s 751 mmHg 79%
16:00 +30°C° 1.6 mm 1 m/s 751 mmHg 87%
17:00 +28°C° 1.6 mm 1 m/s 751 mmHg 95%
18:00 +27°C° 0.2 mm 1 m/s 752 mmHg 96%
19:00 +26°C° 0.2 mm 1 m/s 752 mmHg 96%
20:00 +26°C° 0.2 mm 1 m/s 753 mmHg 97%
21:00 +25°C° 0 mm 1 m/s 754 mmHg 97%
22:00 +25°C° 0 mm 1 m/s 754 mmHg 98%
23:00 +25°C° 0 mm 1 m/s 754 mmHg 98%

Poimâine, 7 August, Vineri

Timp Temperatura Precipitaţii Vânt Presiune Umiditate
00:00 +23°C° 0 mm 0 m/s 754 mmHg 98%
01:00 +23°C° 0 mm 0 m/s 753 mmHg 98%
02:00 +22°C° 0 mm 0 m/s 753 mmHg 99%
03:00 +22°C° 0.1 mm 0 m/s 753 mmHg 99%
04:00 +22°C° 0.1 mm 0 m/s 753 mmHg 99%
05:00 +22°C° 0.1 mm 0 m/s 753 mmHg 99%
06:00 +23°C° 0 mm 0 m/s 753 mmHg 97%
07:00 +26°C° 0 mm 1 m/s 754 mmHg 94%
08:00 +27°C° 0 mm 1 m/s 754 mmHg 92%
09:00 +28°C° 0.9 mm 1 m/s 754 mmHg 86%
10:00 +30°C° 0.9 mm 1 m/s 754 mmHg 79%
11:00 +31°C° 0.9 mm 1 m/s 754 mmHg 72%
12:00 +31°C° 1.5 mm 1 m/s 754 mmHg 79%
13:00 +31°C° 1.5 mm 1 m/s 753 mmHg 85%
14:00 +30°C° 1.5 mm 1 m/s 752 mmHg 91%
15:00 +30°C° 1.3 mm 1 m/s 752 mmHg 92%
16:00 +29°C° 1.3 mm 1 m/s 752 mmHg 93%
17:00 +29°C° 1.3 mm 1 m/s 752 mmHg 94%
18:00 +28°C° 0.2 mm 1 m/s 752 mmHg 95%
19:00 +25°C° 0.2 mm 0 m/s 753 mmHg 96%
20:00 +24°C° 0.2 mm 0 m/s 754 mmHg 97%
21:00 +23°C° 0 mm 0 m/s 754 mmHg 98%
22:00 +23°C° 0 mm 0 m/s 754 mmHg 98%
23:00 +23°C° 0 mm 0 m/s 754 mmHg 98%

8 August, Sâmbătă

Timp Temperatura Precipitaţii Vânt Presiune Umiditate
00:00 +23°C° 0 mm 0 m/s 754 mmHg 98%
01:00 +22°C° 0 mm 0 m/s 753 mmHg 98%
02:00 +22°C° 0 mm 0 m/s 753 mmHg 98%
03:00 +22°C° 0 mm 0 m/s 753 mmHg 98%
04:00 +22°C° 0 mm 0 m/s 753 mmHg 98%
05:00 +22°C° 0 mm 0 m/s 753 mmHg 98%
06:00 +23°C° 0.1 mm 0 m/s 754 mmHg 97%
07:00 +24°C° 0.1 mm 0 m/s 754 mmHg 95%
08:00 +25°C° 0.1 mm 0 m/s 755 mmHg 93%
09:00 +27°C° 0.5 mm 0 m/s 755 mmHg 82%
10:00 +29°C° 0.5 mm 0 m/s 755 mmHg 71%
11:00 +32°C° 0.5 mm 0 m/s 755 mmHg 60%
12:00 +34°C° 0.3 mm 1 m/s 754 mmHg 60%
13:00 +34°C° 0.3 mm 1 m/s 753 mmHg 59%
14:00 +35°C° 0.3 mm 2 m/s 752 mmHg 58%
15:00 +32°C° 0.2 mm 1 m/s 752 mmHg 67%
16:00 +30°C° 0.2 mm 1 m/s 752 mmHg 75%
17:00 +28°C° 0.2 mm 1 m/s 752 mmHg 84%
18:00 +28°C° 1.3 mm 1 m/s 752 mmHg 88%
19:00 +25°C° 1.3 mm 0 m/s 753 mmHg 92%
20:00 +24°C° 1.3 mm 0 m/s 753 mmHg 96%
21:00 +23°C° 0.7 mm 0 m/s 754 mmHg 97%
22:00 +23°C° 0.7 mm 0 m/s 754 mmHg 97%
23:00 +23°C° 0.7 mm 0 m/s 754 mmHg 97%

9 August, Duminică

Timp Temperatura Precipitaţii Vânt Presiune Umiditate
00:00 +23°C° 0.1 mm 0 m/s 754 mmHg 98%
01:00 +22°C° 0.1 mm 0 m/s 753 mmHg 98%
02:00 +22°C° 0.1 mm 0 m/s 753 mmHg 98%
03:00 +22°C° 0 mm 0 m/s 753 mmHg 98%
04:00 +22°C° 0 mm 0 m/s 753 mmHg 98%
05:00 +22°C° 0 mm 0 m/s 753 mmHg 98%
06:00 +23°C° 0 mm 0 m/s 754 mmHg 96%
07:00 +24°C° 0 mm 0 m/s 754 mmHg 94%
08:00 +27°C° 0 mm 1 m/s 755 mmHg 92%
09:00 +29°C° 0.1 mm 1 m/s 755 mmHg 80%
10:00 +32°C° 0.1 mm 1 m/s 754 mmHg 68%
11:00 +34°C° 0.1 mm 1 m/s 754 mmHg 56%
12:00 +31°C° 2.8 mm 0 m/s 753 mmHg 67%
13:00 +30°C° 2.8 mm 0 m/s 753 mmHg 78%
14:00 +29°C° 2.8 mm 0 m/s 752 mmHg 89%
15:00 +28°C° 1.9 mm 0 m/s 752 mmHg 91%
16:00 +27°C° 1.9 mm 0 m/s 751 mmHg 93%
17:00 +26°C° 1.9 mm 0 m/s 751 mmHg 95%
18:00 +26°C° 0.4 mm 0 m/s 752 mmHg 96%
19:00 +25°C° 0.4 mm 0 m/s 752 mmHg 97%
20:00 +24°C° 0.4 mm 0 m/s 753 mmHg 97%
21:00 +24°C° 0.2 mm 0 m/s 753 mmHg 97%
22:00 +23°C° 0.2 mm 0 m/s 753 mmHg 98%
23:00 +23°C° 0.2 mm 0 m/s 753 mmHg 98%

10 August, Luni

Timp Temperatura Precipitaţii Vânt Presiune Umiditate
00:00 +23°C° 0.6 mm 0 m/s 753 mmHg 98%
01:00 +23°C° 0.6 mm 0 m/s 752 mmHg 98%
02:00 +23°C° 0.6 mm 0 m/s 752 mmHg 98%
03:00 +23°C° 0.1 mm 0 m/s 752 mmHg 98%
04:00 +22°C° 0.1 mm 0 m/s 752 mmHg 98%
05:00 +22°C° 0.1 mm 0 m/s 752 mmHg 98%
06:00 +23°C° 0.2 mm 0 m/s 752 mmHg 97%
07:00 +24°C° 0.2 mm 0 m/s 753 mmHg 96%
08:00 +27°C° 0.2 mm 1 m/s 753 mmHg 95%
09:00 +28°C° 1.2 mm 1 m/s 753 mmHg 90%
10:00 +30°C° 1.2 mm 1 m/s 753 mmHg 84%
11:00 +31°C° 1.2 mm 1 m/s 753 mmHg 79%
12:00 +30°C° 1.1 mm 0 m/s 752 mmHg 78%
13:00 +30°C° 1.1 mm 0 m/s 751 mmHg 76%
14:00 +31°C° 1.1 mm 0 m/s 750 mmHg 74%
15:00 +29°C° 1.8 mm 0 m/s 750 mmHg 81%
16:00 +30°C° 1.8 mm 1 m/s 750 mmHg 88%
17:00 +29°C° 1.8 mm 1 m/s 750 mmHg 95%
18:00 +28°C° 0.9 mm 1 m/s 750 mmHg 96%
19:00 +27°C° 0.9 mm 1 m/s 751 mmHg 97%
20:00 +26°C° 0.9 mm 1 m/s 751 mmHg 97%
21:00 +24°C° 0.1 mm 0 m/s 752 mmHg 98%
22:00 +24°C° 0.1 mm 0 m/s 752 mmHg 98%
23:00 +23°C° 0.1 mm 0 m/s 752 mmHg 98%
Arată mai mult